Погода в Полозаозерье

Россия / Тюменская область     55°53′16″N   68°17′28″E
темп.,
°C
ветер,
м/с
пор.,
м/с
влажн.,
%
обл.,
%
осадки,
мм/ч
давл.,
гПа
погр.,
м
4 августа, ср
ср423:00+18сз368069 0.0 1011119
02:00+15ссз35865 0.0 101170
05:00+14ссз36938 0.0 101395
08:00+19ссв35664 0.0 1013496
11:00+24ссв334497 0.0 10131290
14:00+26с33377 0.0 10131995
17:00+26ссз433830 0.0 10122003
20:00+21ссв33575 0.0 101331
5 августа, чт
чт523:00+17всв227067 0.0 101311
02:00+16ююв117598 0.0 101311
05:00+16ю117498 0.0 101311
08:00+21зюз1156100 0.1 1013283
11:00+21юз2466100 0.4 1012230
14:00+20сз2270100 0.2 1013284
17:00+21ю0173100 1.0 1012235
20:00+19вюв2281100 0.0 101120
6 августа, пт
пт623:00+17вюв338722 0.0 101036
02:00+16ююв339176 0.0 101039
05:00+16ююз359199 0.1 101084
08:00+20ююв456899 0.0 1009272
11:00+27юв444589 0.1 1009886
14:00+29ю454077 0.3 10081803
17:00+29ююв2347100 0.8 10071158
20:00+19в6128513 1.8 1008365
7 августа, сб
сб723:00+16юв3109573 2.0 1009237
02:00+16зюз1296100 0.2 100838
05:00+15с3497100 0.6 100882
08:00+18ссз349068 1.7 1009397
11:00+19ссз5678100 1.8 1010696
14:00+20сз6674100 0.1 1011874
17:00+20сз676998 0.1 10111001
20:00+17ссз35820 0.0 101291
8 августа, вс
вс823:00+14сз33950 0.0 101247
02:00+13зсз389617 0.0 1012159
05:00+14зсз4891100 0.0 1012381
08:00+15зсз488482 0.0 1013488
11:00+17сз6965100 0.0 1013845
14:00+21сз674748 0.0 10131616
17:00+20ссз565053 0.0 10131240
20:00+17ссз466896 0.0 1014197